CAPE
1296 1823 2020 2054 2058 1906 1728 1586 1411 1557 1903 1834 1546 1118 929 917 705 470 413 195 0 0 0 0 67 379 531 464 502 458 205 223
859 1095 1580 1701 1587 1636 1520 1365 1219 1369 1690 1424 1013 679 619 550 241 120 6 0 0 0 0 0 0 94 150 223 438 148 37 28
905 963 1098 1127 1151 1269 1293 1221 1149 1223 1281 1261 695 167 114 109 9 0 0 0 0 0 0 0 0 0 42 153 61 0 11 5
541 580 603 701 1006 960 604 765 602 574 466 366 30 0 0 0 0 0 0 0 0 0 0 0 0 0 0 66 0 0 0 0
472 498 407 623 852 429 61 204 111 134 106 9 0 0 0 0 0 0 0 0 0 0 0 0 0 0 0 0 0 0 0 0
393 447 217 490 462 353 377 343 130 40 0 0 0 0 0 0 0 0 0 0 0 0 0 0 0 0 0 0 0 0 0 0
278 306 424 352 277 414 358 196 146 51 1 0 0 0 0 0 0 0 0 0 0 0 0 0 0 0 0 0 0 0 0 0
142 272 297 288 399 310 291 265 136 1 1 0 0 0 0 0 0 0 0 0 0 0 0 0 0 0 0 0 0 0 0 0
258 232 84 273 336 226 203 217 171 34 37 2 4 3 0 0 0 0 0 0 0 0 0 0 0 0 0 0 0 0 0 0
382 422 100 161 333 259 148 135 297 262 172 30 18 2 0 0 0 0 0 0 0 0 0 0 0 0 0 0 0 0 0 0
393 247 68 67 189 104 86 117 79 33 11 2 0 0 0 0 0 0 0 0 0 0 0 0 0 0 0 0 0 0 0 0
293 227 37 1 1 1 1 1 1 0 0 0 0 0 0 0 0 0 0 0 0 0 0 0 1 0 6 1 0 0 0 0
220 232 4 108 114 71 6 58 0 1 0 0 0 0 0 0 0 0 0 0 0 0 0 0 2 1 2 3 3 1 0 0
210 240 92 48 37 0 0 0 0 9 0 0 0 0 0 0 0 0 0 0 0 0 0 0 0 1 1 2 2 1 1 0
71 4 1 0 0 0 0 0 0 0 0 0 0 0 0 0 0 0 0 0 0 0 0 0 0 1 0 0 1 0 2 3
1 1 0 0 0 0 0 0 0 0 0 0 0 0 0 0 0 0 0 0 0 0 0 0 0 1 1 1 0 0 0 2
1 0 0 0 0 0 0 0 0 0 0 0 0 0 0 0 0 0 0 0 0 0 0 0 0 0 0 0 0 0 0 0
0 0 0 0 0 0 0 0 0 0 0 0 0 0 0 0 0 0 0 0 0 0 0 0 0 0 0 2 1 0 0 0
0 0 0 0 0 0 0 0 0 0 0 0 0 0 0 0 0 0 0 0 0 0 0 0 0 0 0 2 5 4 0 0
0 0 0 0 0 0 0 0 0 0 0 0 0 0 0 0 0 0 0 0 0 0 0 0 0 0 1 2 8 12 36 0
CIN
-337 -217 -136 -83 -60 -75 -84 -89 -113 -94 -52 -55 -82 -134 -151 -126 -163 -224 -227 -279 0 0 0 0 -115 -211 -196 -221 -183 -172 -227 -202
-407 -303 -147 -101 -100 -93 -110 -115 -133 -117 -58 -70 -113 -176 -189 -210 -281 -319 -399 0 0 0 0 0 0 -286 -268 -258 -183 -300 -324 -312
-341 -299 -220 -181 -149 -126 -135 -133 -134 -97 -63 -61 -183 -324 -347 -330 -210 0 0 0 0 0 0 0 0 0 -289 -242 -308 -80 -386 -262
-435 -390 -351 -286 -177 -190 -269 -199 -209 -196 -225 -262 -456 0 0 0 0 0 0 0 0 0 0 0 0 0 0 -222 0 0 0 0
-438 -410 -428 -313 -225 -330 -572 -390 -440 -387 -374 -500 0 0 0 0 0 0 0 0 0 0 0 0 0 0 0 0 0 0 0 0
-490 -415 -510 -323 -310 -355 -312 -302 -392 -483 0 0 0 0 0 0 0 0 0 0 0 0 0 0 0 0 0 0 0 0 0 0
-550 -494 -402 -409 -425 -327 -295 -342 -357 -422 0 0 0 0 0 0 0 0 0 0 0 0 0 0 0 0 0 0 0 0 0 0
-621 -533 -505 -449 -344 -357 -321 -265 -303 -280 0 0 0 0 0 0 0 0 0 0 0 0 0 0 0 0 0 0 0 0 0 0
-616 -548 -585 -420 -358 -362 -319 -260 -247 -309 -286 -302 -345 -404 0 0 0 0 0 0 0 0 0 0 0 0 0 0 0 0 0 0
-556 -478 -594 -487 -345 -320 -325 -290 -195 -198 -234 -291 -321 -154 0 0 0 0 0 0 0 0 0 0 0 0 0 0 0 0 0 0
-529 -540 -615 -540 -374 -382 -353 -268 -242 -281 -166 -209 0 0 0 0 0 0 0 0 0 0 0 0 0 0 0 0 0 0 0 0
-541 -509 -648 -174 0 0 0 -82 0 0 0 0 0 0 0 0 0 0 0 0 0 0 0 0 0 0 0 0 0 0 0 0
-566 -509 -304 -468 -381 -321 -341 -235 0 -112 0 0 0 0 0 0 0 0 0 0 0 0 0 0 0 0 0 0 0 0 0 0
-519 -456 -501 -351 -378 0 0 0 0 -175 0 0 0 0 0 0 0 0 0 0 0 0 0 0 -1 0 0 0 0 0 0 0
-600 -201 -124 0 0 0 0 0 0 0 0 0 0 0 0 0 0 0 0 0 0 0 0 0 0 0 0 0 0 0 0 0
0 0 0 0 0 0 0 0 0 0 0 0 0 0 0 0 0 0 0 0 0 0 0 0 0 0 0 -1 0 0 0 0
0 0 0 0 0 0 0 0 0 0 0 0 0 0 0 0 0 0 0 0 0 0 0 0 0 0 0 0 -1 0 0 0
0 0 0 0 0 0 0 0 0 0 0 0 0 0 0 0 0 0 0 0 0 0 0 0 0 0 0 -6 -6 0 0 0
0 0 0 0 0 0 0 0 0 0 0 0 0 0 0 0 0 0 0 0 0 0 0 0 0 0 0 -1 -11 -9 0 0
0 0 0 0 0 0 0 0 0 0 0 0 0 0 0 0 0 0 0 0 0 0 0 0 0 0 0 0 0 -1 0 -1
Wind_Speed
11 11 10 11 11 12 11 11 11 12 12 12 11 10 10 9 8 6 5 5 4 3 2 2 3 4 7 9 9 10 6 5
8 7 6 5 6 10 11 10 10 11 11 10 9 9 8 8 6 3 2 3 2 3 2 2 1 3 5 8 10 10 5 5
7 6 4 4 4 6 9 9 9 8 8 9 7 4 5 6 5 3 2 1 1 3 2 1 1 2 4 8 8 3 5 3
9 10 9 7 5 5 4 4 4 4 5 6 4 4 4 4 5 5 5 4 3 3 3 0 2 2 1 7 2 4 3 3
8 9 10 10 6 4 2 2 3 3 5 5 5 4 2 2 0 0 0 2 0 2 3 1 2 2 2 3 4 4 3 3
12 12 10 10 6 5 5 4 4 3 4 5 4 3 3 2 0 1 1 1 2 1 1 2 3 3 5 5 6 5 3 3
10 10 9 9 8 5 5 5 5 6 4 5 4 3 3 3 3 3 3 3 3 2 1 2 2 3 4 5 5 5 5 3
9 11 9 10 9 7 6 5 5 5 5 5 6 5 5 5 5 5 4 4 3 3 3 3 3 3 4 3 4 4 4 4
12 11 10 11 12 9 6 6 6 7 5 7 8 8 5 3 2 3 2 2 3 2 2 3 3 3 4 3 3 3 3 4
11 9 10 10 11 8 5 5 5 4 4 4 6 5 5 4 3 4 4 3 4 3 3 4 3 4 4 5 1 2 3 3
11 10 11 9 7 6 6 4 3 2 2 2 3 4 4 4 3 3 3 3 3 3 3 4 3 2 2 2 5 4 1 1
9 7 8 9 6 4 3 3 3 3 2 2 2 3 5 4 4 4 3 3 3 3 4 2 2 5 6 4 5 5 6 5
11 12 10 9 6 4 3 3 2 2 3 5 7 5 6 6 4 4 4 5 5 5 3 5 3 5 5 2 1 1 2 4
13 12 12 8 6 3 3 2 2 0 1 4 4 5 5 4 5 5 5 4 5 6 7 3 4 8 3 2 3 2 2 3
13 12 10 8 7 4 3 3 2 2 2 2 1 2 2 3 4 4 5 4 6 6 7 8 5 7 7 5 3 4 3 2
10 10 9 7 7 5 5 4 4 3 1 1 2 3 4 3 4 4 4 4 4 5 5 7 6 5 5 6 4 4 5 4
8 9 7 7 7 6 4 4 3 2 1 4 4 4 5 4 3 3 4 3 3 4 4 6 6 6 5 3 5 2 1 3
7 8 6 6 6 6 7 7 6 3 4 4 4 4 4 4 4 4 3 4 5 4 4 5 4 5 5 7 6 5 4 4
6 7 6 6 7 7 7 8 7 8 6 4 4 3 2 4 5 4 4 5 5 4 4 5 4 4 5 6 5 6 4 8
6 7 6 7 7 8 6 7 5 4 5 4 5 4 4 4 5 6 6 6 5 4 3 4 4 4 6 7 6 5 6 6
Wind_Direction
161 164 156 149 144 143 145 150 150 153 150 149 145 138 129 119 112 106 114 115 107 99 67 64 96 101 121 116 112 119 108 112
154 149 133 129 147 145 152 161 160 160 156 151 141 137 136 137 125 97 75 81 88 76 28 345 95 141 133 131 122 107 107 104
147 144 122 124 130 156 158 165 164 149 147 150 135 137 136 138 150 157 155 142 144 98 113 288 100 164 158 138 113 109 117 118
176 175 164 149 156 151 144 142 126 136 142 148 137 147 161 178 179 183 188 189 191 125 103 164 103 125 163 139 127 130 114 133
172 179 178 171 162 141 115 135 146 154 157 150 161 154 172 172 140 283 358 224 193 135 122 135 221 155 157 153 157 142 146 146
181 184 177 178 168 168 163 160 168 170 181 171 161 173 194 187 184 244 227 284 265 271 145 194 191 185 170 164 163 159 160 162
177 169 170 177 174 164 165 176 180 195 184 184 165 179 195 185 209 202 200 203 216 238 169 242 229 182 171 164 162 159 163 163
173 180 174 175 182 171 173 178 183 196 200 188 178 178 192 199 196 201 201 194 196 193 172 202 223 193 174 182 167 162 169 169
183 179 169 176 187 182 181 193 186 206 200 185 190 196 201 199 218 236 225 182 210 212 173 202 210 206 176 173 162 159 163 173
177 174 170 172 183 185 189 195 194 197 197 184 196 195 186 185 203 225 229 193 188 196 195 232 215 211 161 144 107 118 149 165
176 168 166 165 167 175 187 159 176 171 160 176 195 206 194 194 198 232 210 200 208 197 207 203 192 176 124 96 121 123 62 243
160 157 144 145 141 132 141 153 152 174 184 184 187 210 190 195 211 228 197 198 215 200 211 178 196 187 175 155 158 165 155 206
151 153 150 153 151 147 129 156 160 186 205 204 206 198 202 204 217 219 206 205 202 203 184 181 164 176 129 122 64 211 177 164
149 160 156 156 135 118 138 145 154 167 188 228 225 215 207 206 213 223 216 203 201 196 193 188 189 178 155 183 169 175 160 176
154 155 142 135 125 115 77 79 68 3 282 306 220 247 258 249 246 235 236 209 218 192 199 202 202 186 200 159 161 195 138 159
134 132 136 134 142 137 157 161 186 219 177 245 261 250 263 258 256 264 249 221 213 204 199 210 213 211 211 222 263 137 166 162
126 131 137 142 158 162 154 186 213 155 191 236 251 265 251 278 294 288 269 252 248 221 207 211 209 216 210 177 189 177 90 127
125 139 151 158 152 173 191 202 209 218 217 237 235 241 249 236 248 238 245 232 229 224 205 210 207 237 241 239 194 176 183 164
140 149 174 180 186 203 208 218 210 226 234 227 249 262 254 239 222 233 227 219 221 222 231 228 215 227 220 250 246 245 185 197
176 186 207 199 207 226 221 227 223 231 236 222 235 229 224 203 225 220 230 231 221 226 229 243 228 228 243 248 266 269 244 192